Find TROOP-F2

NORAD ID: 60557 Int'l Des: 2024-149 Owner: NSL Country: US operational
LEOCIRCULARRETROGRADE

Live Position

Loading 3D Globe...

About TROOP-F2

Description loading...

Upcoming Passes

Passes for default location (London). Set your location on the main map for personalized predictions.

Altitude History

Loading altitude history...

Two-Line Element Set

1 60557U 24149CT 26105.72689867 .00212547 00000-0 84811-3 0 9996
2 60557 97.3454 198.9909 0003312 245.7965 114.2960 15.86045249 93389
Epoch: Apr 15, 2026 • Age: 11 hours

Current Status

Altitude 315.3 km
Velocity 7.72 km/s
Sub-Earth Point 19.39°N, 106.95°E
Launch Date Aug 16, 2024
Age 1.6 years
Type other

Technical Details

Classification Payload
Mass 10.00 kg
Dry Mass 10.00 kg
Total Mass 10.00 kg
Length 0.30 m
Diameter 0.20 m
Span 0.70 m
Shape Box+ 4 pan
Manufacturer NSL
Bus Type Cubesat 6U
Phase Status In Orbit
Owner/State NSL/US

Most Searched